User: anonymous   Login
Location: Grange Rosano
(44.4500°N, 6.9667°E)
Time: 01:30:18
(UTC+00:00)
Language:

ADEOS Rocket - Orbit

View from above orbital plane
View from above orbital plane
View from above satellite
View from above satellite

Ground track
Ground track

The orbit data is extracted from the following two-line orbital elements,

1 24279U 96046C   22225.27623532  .00000024  00000-0  73362-4 0  9993
2 24279  98.7708 319.2361 0300376 166.4473 258.4617 13.47228985277514
Epoch (UTC): 13 August 2022 06:37:46
Eccentricity: 0.0300376
inclination: 98.7708°
perigee height: 858 km
apogee height: 1306 km
right ascension of ascending node: 319.2361°
argument of perigee: 166.4473°
revolutions per day: 13.47228985
mean anomaly at epoch: 258.4617°
orbit number at epoch: 27751

The dashed part of the orbit path shows where the satellite is in the earth's shadow,  

DLR